Weather History for Springfield, IL

Change the Weather History Date:

Friday, September 21, 2012

  Actual Average Record
Temperature  
Mean Temperature 63 °F 65 °F  
Max Temperature 80 °F 77 °F 96 °F (1931)
Min Temperature 46 °F 52 °F 36 °F (1991)
Degree Days  
Heating Degree Days 2 3  
Month to date heating degree days 33 32  
Since 1 July heating degree days 33 37  
Cooling Degree Days 0 3  
Month to date cooling degree days 115 107  
Year to date cooling degree days 1516 1077  
Growing Degree Days 14 (Base 50)    
Moisture  
Dew Point 48 °F    
Average Humidity 59    
Maximum Humidity 93    
Minimum Humidity 25    
Precipitation  
Precipitation 0.03 in 0.09 in 1.85 in (1947)
Month to date precipitation 2.33 2.04  
Year to date precipitation 20.06 27.69  
Snow  
Snow 0.00 in 0.00 in 0.00 in ()
Month to date snowfall 0.0 0.0  
Since 1 July snowfall 0.0 0.0  
Since 1 September snowfall 0.0 0.0  
Snow Depth 0.00 in    
Sea Level Pressure  
Sea Level Pressure 29.86 in    
Wind  
Wind Speed 8 mph (South)    
Max Wind Speed 23 mph    
Max Gust Speed 29 mph    
Visibility 10 miles    
Events      
T = Trace of Precipitation, MM = Missing Value Source: NWS Daily Summary

Daily Weather History Graph

Daily Weather History Graph

Search for Another Location

Airport:

Trip Planner

Search our weather history database for the weather conditions in past years. The results will help you decide how hot, cold, wet, or windy it might be!

Date:

Astronomy

Sep. 21, 2012 Rise Set
Actual Time 6:45 AM CDT 6:56 PM CDT
Civil Twilight 6:18 AM CDT 7:23 PM CDT
Nautical Twilight 5:47 AM CDT 7:55 PM CDT
Astronomical Twilight 5:15 AM CDT 8:27 PM CDT
Moon 1:06 PM CDT (9/21) 10:58 PM CDT (9/21)
Length of Visible Light 13h 04m
Length of Day
12h 10m
Waxing Crescent, 37% of the Moon is Illuminated
Sep 21
Waxing Crescent
Sep 22
First Quarter
Sep 29
Full
Oct 8
Last Quarter
Oct 15
New

Hourly Weather History & Observations

Time (CDT) Temp. Dew Point Humidity Pressure Visibility Wind Dir Wind Speed Gust Speed Precip Events Conditions
12:52 AM 50.0 °F 42.1 °F 74% 29.99 in 10.0 mi Calm Calm - N/A   Clear
1:52 AM 52.0 °F 44.1 °F 74% 29.99 in 10.0 mi Calm Calm - N/A   Clear
2:52 AM 51.1 °F 46.0 °F 83% 29.98 in 5.0 mi Calm Calm - N/A   Haze
3:52 AM 54.0 °F 43.0 °F 66% 29.96 in 10.0 mi Calm Calm - N/A   Partly Cloudy
4:52 AM 54.0 °F 45.0 °F 72% 29.94 in 10.0 mi Calm Calm - N/A   Clear
5:52 AM 52.0 °F 46.0 °F 80% 29.94 in 10.0 mi SSE 3.5 mph - N/A   Scattered Clouds
6:52 AM 55.0 °F 44.1 °F 67% 29.94 in 10.0 mi SSE 3.5 mph - N/A   Overcast
7:52 AM 57.0 °F 42.1 °F 57% 29.94 in 10.0 mi South 6.9 mph - N/A   Overcast
8:52 AM 59.0 °F 42.1 °F 53% 29.97 in 10.0 mi Calm Calm - N/A   Mostly Cloudy
9:52 AM 64.0 °F 42.1 °F 45% 29.94 in 10.0 mi SSE 6.9 mph - N/A   Scattered Clouds
10:52 AM 70.0 °F 39.0 °F 32% 29.90 in 10.0 mi South 11.5 mph - N/A   Clear
11:52 AM 75.0 °F 39.9 °F 28% 29.84 in 10.0 mi SSE 18.4 mph 25.3 mph N/A   Partly Cloudy
12:52 PM 79.0 °F 39.9 °F 25% 29.78 in 10.0 mi South 18.4 mph 25.3 mph N/A   Partly Cloudy
1:52 PM 75.0 °F 52.0 °F 44% 29.74 in 10.0 mi South 12.7 mph 20.7 mph N/A   Mostly Cloudy
2:52 PM 75.9 °F 55.0 °F 48% 29.71 in 10.0 mi South 13.8 mph - N/A   Scattered Clouds
3:52 PM 77.0 °F 57.0 °F 50% 29.69 in 10.0 mi SSW 12.7 mph 18.4 mph N/A   Mostly Cloudy
4:52 PM 77.0 °F 57.0 °F 50% 29.67 in 10.0 mi SW 10.4 mph - N/A   Mostly Cloudy
5:52 PM 69.1 °F 57.9 °F 68% 29.68 in 10.0 mi NNE 8.1 mph - 0.03 in   Scattered Clouds
6:52 PM 62.1 °F 55.0 °F 78% 29.72 in 10.0 mi NE 18.4 mph - N/A   Clear
7:52 PM 59.0 °F 54.0 °F 83% 29.79 in 10.0 mi NNW 9.2 mph - N/A   Clear
8:52 PM 57.0 °F 51.1 °F 81% 29.82 in 10.0 mi North 11.5 mph - N/A   Clear
9:52 PM 55.0 °F 48.9 °F 80% 29.85 in 10.0 mi North 10.4 mph - N/A   Clear
10:52 PM 53.1 °F 50.0 °F 89% 29.87 in 10.0 mi North 8.1 mph - N/A   Clear
11:52 PM 50.0 °F 48.0 °F 93% 29.88 in 7.0 mi NNW 6.9 mph - N/A   Clear